Weather Roundup
Issued by NWS

Home | Current Version | Previous Version | Graphics & Text | Print | Product List | Glossary Off
Versions: 1 2 3 4 5 6 7 8 9 10 11 12 13 14 15 16 17 18 19 20 21 22 23 24 25 26 27 28 29 30 31 32 33 34 35 36 37 38 39 40 41 42 43 44 45 46 47 48 49 50

000
NZUS93 KARX 301259
HRRWXR

CURRENT HOURLY OBSERVATIONS ACROSS
MUCH OF THE UPPER MISSISSIPPI VALLEY
NATIONAL WEATHER SERVICE LA CROSSE WI
800 AM CDT SAT APR 30 2016


...SOUTHEAST MINNESOTA...


CITY           SKY/WX    TMP DP  RH WIND       PRES   REMARKS
ROCHESTER      CLOUDY    42  39  89 E14       30.02F
ROCHESTER/MAYO PTSUNNY   43  38  81 E9        30.04S
WINONA         CLOUDY    43  36  75 E7        30.07S
AUSTIN         CLOUDY    43  37  81 E16G22    29.99S
ALBERT LEA     NOT AVBL
DODGE CENTER   CLOUDY    43  37  81 E17       30.02S
PRESTON        CLOUDY    42  37  82 E14G20    30.01F
OWATONNA       CLOUDY    45  37  76 E15       30.02S
FARIBAULT      CLOUDY    43  37  81 NE7       30.04S
$$

...ELSEWHERE IN MINNESOTA...


CITY           SKY/WX    TMP DP  RH WIND       PRES   REMARKS
MINNEAPOLIS    CLOUDY    43  33  68 E9        30.09S
INTNL FALLS    SUNNY     41  33  73 NE7       30.32R
DULUTH         MOSUNNY   41  31  67 E17       30.25R
RED WING       CLOUDY    45  36  70 E8        30.07S
REDWOOD FALLS  CLOUDY    41  33  73 NE12G18   30.02F
MANKATO        CLOUDY    45  36  70 NE13      30.01S
WORTHINGTON    CLOUDY    43  39  86 NE20      29.94R
FAIRMONT       CLOUDY    45  30  57 NE17G25   29.96R
$$

...SOUTHWEST WISCONSIN...


CITY           SKY/WX    TMP DP  RH WIND       PRES   REMARKS
LA CROSSE      CLOUDY    45  34  65 E7        30.07S
PRAIRIE DU CHI CLOUDY    46  37  73 E10G18    30.01F
BOSCOBEL       CLOUDY    48  38  68 E6        30.04F
LONE ROCK      NOT AVBL
PLATTEVILLE    CLOUDY    45  41  86 E17G23    30.00F
FORT MC COY    CLOUDY    41  35  77 E8        30.08F
MAUSTON-NEW LI CLOUDY    40  34  76 CALM      30.08F
VIROQUA        FAIR      44  38  82 E12       30.05S
WIS DELLS      CLOUDY    40  32  72 E6        30.08S
$$

...ELSEWHERE IN WISCONSIN...


CITY           SKY/WX    TMP DP  RH WIND       PRES   REMARKS
MILWAUKEE      CLOUDY    44  39  82 E12       30.10S
MADISON        CLOUDY    44  33  65 E9        30.07S
GREEN BAY      PTSUNNY   45  38  76 NE15      30.15S
EAU CLAIRE     NOT AVBL
BLACK RVR FLS  FAIR      39  36  89 NE6       30.09F WCI  35
MEDFORD        CLOUDY    38  32  79 NE8       30.14S WCI  32
WAUSAU         CLOUDY    44  31  60 E10       30.12F
WIS RAPIDS     CLOUDY    42  29  59 E12       30.12F
MARSHFIELD     CLOUDY    42  32  67 NE10      30.10F
RICE LAKE      CLOUDY    40  32  73 N3        30.16S
$$

...NORTHEAST IOWA...


CITY           SKY/WX    TMP DP  RH WIND       PRES   REMARKS
WATERLOO       CLOUDY    44  40  85 E17G28    29.92F FOG
DUBUQUE        CLOUDY    45  40  82 NE10      29.96F
DECORAH        CLOUDY    43  41  93 E14G20    29.99F
MASON CITY     CLOUDY    43  39  86 E22G29    29.95F
CHARLES CITY   CLOUDY    45  43  93 E20G26    29.96S
OELWEIN        MIX PCPN  43  43 100 E20G26    29.95S
$$

...ELSEWHERE IN IOWA...


CITY           SKY/WX    TMP DP  RH WIND       PRES   REMARKS
DES MOINES     LGT RAIN  46  42  86 E18G26    29.81S FOG
IOWA CITY      CLOUDY    46  43  89 E17G24    29.89F FOG
FORT DODGE     CLOUDY    43  37  81 E21       29.86F
MARSHALLTOWN   LGT RAIN  43  41  93 E21       29.87F FOG
CEDAR RAPIDS   CLOUDY    45  44  97 E22       29.88F FOG
$$

...NORTHERN ILLINOIS...


CITY           SKY/WX    TMP DP  RH WIND       PRES   REMARKS
CHICAGO-OHARE  CLOUDY    47  42  83 E12       30.04F HAZE
CHICAGO-MIDWAY CLOUDY    50  41  71 E13       30.04F
MOLINE         LGT RAIN  47  43  86 E17       29.92F FOG
ROCKFORD       CLOUDY    47  41  80 E13       30.04F
PEORIA         RAIN      48  46  93 E14G22    29.92F FOG
$$

NOTE: "FAIR" INDICATES FEW OR NO CLOUDS BELOW 12,000 FEET WITH NO
SIGNIFICANT WEATHER AND/OR OBSTRUCTIONS TO VISIBILITY. WIND
SPEEDS ARE IN MILES-PER-HOUR.




USA.gov is the U.S. government's official web portal to all federal, state and local government web resources and services.